Flag for U.S.A. Weather past 2 weeks in Sunrise Manor, Nevada, U.S.A.

Now
102 °F

Sunny.


Feels Like: 97 °F
Forecast: 76 / 105 °F
Wind: 5 mph from North

Location: Nellis Air Force Base

Current Time: Aug 3, 2015 at 1:14:09 PM

Latest Report: Aug 3, 2015 at 12:58 PM


Visibility: 10 mi

Pressure: 29.74 "Hg (27.99 "Hg at 555m altitude)

Humidity: 11%

Dew point: 39 °F

Location of Sunrise ManorLocation

Historic Weather in Sunrise Manor — Graph

°F

Sunrise Manor temperature yesterday

Maximum temperature yesterday: 102 °F (at 3:58 PM)
Minimum temperature yesterday: 75 °F (at 5:58 AM)
Average temperature yesterday: 90 °F

Past Weeks' High & Low Weather Summary

 TemperatureHumidityPressure
High104 °F (Jul 30, 4:58 PM)70% (Jul 20, 7:58 AM)30.10 "Hg (Jul 20, 7:58 AM)
Low73 °F (Jul 20, 7:59 AM)5% (Jul 26, 5:58 PM)29.60 "Hg (Jul 22, 5:58 PM)
Average90 °F25%29.82 "Hg
* Reported Jul 19 11:58 AM — Aug 3 11:58 AM, Sunrise Manor, Weather by CustomWeather, © 2015

Note: Actual official high and low records may vary slightly from our data, if they occured in-between our weather recording intervals... More about our weather records

Advertising

Sunrise Manor weather history for previous 24 hours

 ConditionsComfort  
Time TempWeatherWind HumidityBarometerVisibility
11:58 AM
Mon, Aug 3
101 °FSunny.5 mph12%29.75 "Hg10 mi
10:58 AM98 °FSunny.3 mph14%29.77 "Hg10 mi
9:58 AM95 °FSunny.1 mph17%29.77 "Hg10 mi
8:58 AM93 °FSunny.7 mph20%29.77 "Hg10 mi
7:58 AM89 °FSunny.6 mph24%29.76 "Hg10 mi
6:58 AM81 °FSunny.6 mph30%29.76 "Hg10 mi
5:58 AM78 °FClear.7 mph34%29.75 "Hg10 mi
4:58 AM80 °FClear.5 mph34%29.73 "Hg10 mi
3:58 AM80 °FClear.6 mph35%29.72 "Hg10 mi
2:58 AM84 °FClear.No wind32%29.70 "Hg10 mi
1:58 AM85 °FClear.2 mph29%29.71 "Hg10 mi
12:58 AM86 °FClear.2 mph29%29.70 "Hg10 mi
11:58 PM
Sun, Aug 2
91 °FClear.6 mph25%29.70 "Hg10 mi
10:58 PM94 °FClear.5 mph23%29.68 "Hg10 mi
9:58 PM96 °FClear.6 mph22%29.70 "Hg10 mi
8:58 PM97 °FClear.10 mph21%29.68 "Hg10 mi
7:58 PM100 °FSunny.1 mph17%29.67 "Hg10 mi
6:58 PM100 °FSunny.No wind18%29.67 "Hg10 mi
5:58 PM101 °FSunny.3 mph18%29.67 "Hg10 mi
4:58 PM100 °FSunny.2 mph18%29.69 "Hg10 mi
3:58 PM102 °FSunny.10 mph18%29.71 "Hg10 mi
2:58 PM100 °FSunny.3 mph19%29.74 "Hg10 mi
1:58 PM98 °FSunny.3 mph21%29.77 "Hg10 mi
Weather by CustomWeather, © 2015

See weather overviewHow to use our weather pages